Location: Newark
(34.0131°N, 4.3314°W)
Time: 12:24:30
(UTC+00:00)

A-11 Canister half - All Passes

Search period start: 20 October 2019 00:00
Search period end: 30 October 2019 00:00
Orbit: 1527 x 1682 km, 47.3° (Epoch: 20 October)

Date Brightness Start Highest point End Pass type
(mag) Time Alt. Az. Time Alt. Az. Time Alt. Az.
20 Oct - 01:52:53 10° NW 02:02:10 67° NNE 02:11:37 10° ESE visible
20 Oct - 03:58:18 10° WNW 04:06:52 42° SW 04:15:40 10° SSE visible
20 Oct - 17:10:51 10° S 17:17:24 21° SE 17:23:49 10° E daylight
20 Oct - 19:11:52 10° SW 19:21:24 79° SE 19:30:44 10° NE visible
20 Oct - 21:18:06 10° W 21:27:01 45° NNW 21:35:52 10° NE visible
20 Oct - 23:25:35 10° WNW 23:34:02 37° N 23:42:30 10° ENE visible
21 Oct - 01:31:15 10° NW 01:40:31 65° NNE 01:49:55 10° ESE visible
21 Oct - 03:36:37 10° WNW 03:45:17 44° SW 03:54:11 10° SSE visible
21 Oct - 16:49:38 10° SSE 16:55:50 19° SE 17:01:56 10° E daylight
21 Oct - 18:50:15 10° SW 18:59:47 75° SE 19:09:06 10° NE visible
21 Oct - 20:56:21 10° W 21:05:19 46° NNW 21:14:13 10° NE visible
21 Oct - 23:03:52 10° WNW 23:12:19 36° N 23:20:46 10° ENE visible
22 Oct - 01:09:39 10° NW 01:18:52 62° NNE 01:28:13 10° ESE visible
22 Oct - 03:14:55 10° WNW 03:23:42 47° SW 03:32:41 10° SSE visible
22 Oct - 16:28:26 10° SSE 16:34:16 18° SE 16:40:01 10° E daylight
22 Oct - 18:28:39 10° SW 18:38:11 72° SE 18:47:29 10° ENE visible
22 Oct - 20:34:36 10° W 20:43:38 48° NNW 20:52:34 10° NE visible
22 Oct - 22:42:10 10° WNW 22:50:35 36° N 22:59:01 10° ENE visible
23 Oct - 00:48:01 10° NW 00:57:13 60° NNE 01:06:30 10° ESE night (unlit)
23 Oct - 02:53:16 10° WNW 03:02:07 50° SW 03:11:10 10° SSE visible
23 Oct - 16:07:18 10° SSE 16:12:43 16° SE 16:18:02 10° E daylight
23 Oct - 18:07:03 10° SW 18:16:34 69° SE 18:25:51 10° ENE visible
23 Oct - 20:12:51 10° W 20:21:57 49° NNW 20:30:56 10° NE visible
23 Oct - 22:20:27 10° WNW 22:28:52 36° N 22:37:17 10° ENE visible
24 Oct - 00:26:23 10° NW 00:35:33 58° NNE 00:44:47 10° ESE night (unlit)
24 Oct - 02:31:36 10° WNW 02:40:31 53° SW 02:49:38 10° SSE visible
24 Oct - 15:46:13 10° SSE 15:51:09 15° ESE 15:55:59 10° E daylight
24 Oct - 17:45:28 10° SW 17:54:58 65° SE 18:04:12 10° ENE visible
24 Oct - 19:51:06 10° W 20:00:16 51° NNW 20:09:18 10° NE visible
24 Oct - 21:58:43 10° WNW 22:07:09 36° N 22:15:32 10° ENE visible
25 Oct - 00:04:46 10° NW 00:13:53 56° NNE 00:23:04 10° ESE night (unlit)
25 Oct - 02:09:56 10° WNW 02:18:56 56° SW 02:28:06 10° SSE visible
25 Oct - 04:20:20 10° WSW 04:22:34 11° WSW 04:24:49 10° SW visible
25 Oct - 15:25:14 10° SSE 15:29:35 14° ESE 15:33:52 10° E daylight
25 Oct - 17:23:53 10° SW 17:33:21 62° SE 17:42:34 10° ENE daylight
25 Oct - 19:29:21 10° W 19:38:36 53° NNW 19:47:40 10° NE visible
25 Oct - 21:36:59 10° WNW 21:45:26 36° N 21:53:49 10° ENE visible
25 Oct - 23:43:08 10° NW 23:52:13 54° NNE 00:01:20 10° ESE visible
26 Oct - 01:48:17 10° WNW 01:57:21 59° SW 02:06:34 10° SSE night (unlit)
26 Oct - 03:57:44 10° WSW 04:01:00 12° WSW 04:04:19 10° SW visible
26 Oct - 15:04:24 10° SE 15:08:02 13° ESE 15:11:37 10° E daylight
26 Oct - 17:02:19 10° SSW 17:11:45 59° SE 17:20:55 10° ENE daylight
26 Oct - 19:07:36 10° WSW 19:16:55 54° NNW 19:26:03 10° NE visible
26 Oct - 21:15:15 10° WNW 21:23:43 36° N 21:32:06 10° ENE visible
26 Oct - 23:21:29 10° NW 23:30:33 52° NNE 23:39:37 10° E visible
27 Oct - 01:26:38 10° WNW 01:35:45 62° SW 01:45:01 10° SE night (unlit)
27 Oct - 03:35:25 10° W 03:39:27 13° WSW 03:43:32 10° SSW visible
27 Oct - 14:43:47 10° SE 14:46:28 11° ESE 14:49:08 10° ESE daylight
27 Oct - 16:40:46 10° SSW 16:50:09 56° SE 16:59:16 10° ENE daylight
27 Oct - 18:45:52 10° WSW 18:55:14 56° NNW 19:04:25 10° NE visible
27 Oct - 20:53:30 10° WNW 21:01:59 36° N 21:10:22 10° ENE visible
27 Oct - 22:59:51 10° NW 23:08:52 50° NNE 23:17:53 10° E visible
28 Oct - 01:05:00 10° WNW 01:14:09 65° SW 01:23:27 10° SE night (unlit)
28 Oct - 03:13:17 10° W 03:17:54 15° WSW 03:22:35 10° SSW night (unlit)
28 Oct - 14:23:57 10° SE 14:24:54 10° ESE 14:25:51 10° ESE daylight
28 Oct - 16:19:12 10° SSW 16:28:33 53° SE 16:37:37 10° ENE daylight
28 Oct - 18:24:08 10° WSW 18:33:34 58° NNW 18:42:48 10° NE visible
28 Oct - 20:31:45 10° WNW 20:40:16 36° N 20:48:40 10° ENE visible
28 Oct - 22:38:12 10° NW 22:47:12 49° NNE 22:56:10 10° E visible
29 Oct - 00:43:21 10° WNW 00:52:34 69° SW 01:01:52 10° SE night (unlit)
29 Oct - 02:51:13 10° W 02:56:21 16° SW 03:01:33 10° SSW night (unlit)
29 Oct - 15:57:40 10° SSW 16:06:57 50° SE 16:15:57 10° ENE daylight
29 Oct - 18:02:24 10° WSW 18:11:54 60° NNW 18:21:11 10° NE visible
29 Oct - 20:10:00 10° WNW 20:18:33 36° N 20:26:58 10° ENE visible
29 Oct - 22:16:34 10° NW 22:25:31 48° NNE 22:34:25 10° E visible
